Regional Weather Roundup
Issued by NWS Sterling, VA

Home | Current Version | Previous Version | Graphics & Text | Print | Product List | Glossary On
Versions: 1 2 3 4 5 6 7 8 9 10 11 12 13 14 15 16 17 18 19 20 21 22 23 24 25 26 27 28
000
ASUS41 KLWX 221710
RWRLWX

REGIONAL WEATHER ROUNDUP
NATIONAL WEATHER SERVICE BALTIMORE MD/WASHINGTON DC
1200 PM EST WED FEB 22 2017

Note: "FAIR" indicates few or no clouds below 12,000 feet
with no significant weather and/or obstructions to visibility.
 TC=TEMPERATURE CELSIUS

 * =Non NWS site. Station does not report precipitation (e.g. rain,
    snow, etc.), thunder, or fog.

DCZ001-MDZ009-015-VAZ040>042-051-053>054-221800-
WASHINGTON METRO

CITY           SKY/WX    TMP DP  RH WIND       PRES   REMARKS
WASHINGTON NAT CLOUDY    55  45  68 S8        29.99F
DULLES         PTSUNNY   58  42  55 CALM      29.98F
ANDREWS AFB    CLOUDY    57  44  62 SW5       29.97F
FT BELVOIR     CLOUDY    56  44  63 CALM      29.98F
QUANTICO       CLOUDY    50  46  86 SW6       30.00F
COLLEGE PARK*  CLOUDY    55  41  58 CALM      29.97F
LEESBURG*      CLOUDY    57  45  62 NE7       29.98F
MANASSAS*      CLOUDY    57  44  62 S3        29.98F
GAITHERSBURG*  CLOUDY    57  39  51 SW3       30.01F

$$

MDZ006>007-011-014-221800-
BALTIMORE METRO

CITY           SKY/WX    TMP DP  RH WIND       PRES   REMARKS
BWI AIRPORT    CLOUDY    58  42  55 N3        29.97F
MD SCIENCE CTR   N/A     55  40  56 MISG      29.99F
MARTIN STATE   PTSUNNY   52  46  82 SE8       30.01F
ANNAPOLIS      CLOUDY    49  44  83 SE12      29.99F
FORT MEADE*    MOSUNNY   59  41  51 CALM      29.99F

$$

MDZ012-015-019>023-221800-
MARYLAND EASTERN SHORE

CITY           SKY/WX    TMP DP  RH WIND       PRES   REMARKS
OCEAN CITY     CLOUDY    50  47  89 S6        30.02F
SALISBURY      CLOUDY    59  50  72 SW8       30.00F
BAY BRIDGE AP* PTSUNNY   54  45  71 SE9       29.99F
CAMBRIDGE*       N/A    N/A N/A N/A MISG        N/A
EASTON*        MOSUNNY   57  46  67 SW9       30.03F

$$

MDZ017>025-221800-
SOUTHERN MARYLAND

CITY           SKY/WX    TMP DP  RH WIND       PRES   REMARKS
PATUXENT RIVER PTSUNNY   53  47  79 SE6       29.99F
ST INIGOES     NOT AVBL
LEONARDTOWN*   CLOUDY    54  45  71 SW3       30.00F

$$

MDZ003>005-221800-
NORTH CENTRAL MARYLAND

CITY           SKY/WX    TMP DP  RH WIND       PRES   REMARKS
FREDERICK*     PTSUNNY   55  43  62 SW5       30.01F
HAGERSTOWN APT MOSUNNY   57  40  52 SE3       29.96F
WESTMINSTER*   MOSUNNY   55  43  62 SW6       29.97F

$$

MDZ501>502-221800-
WESTERN MARYLAND

CITY           SKY/WX    TMP DP  RH WIND       PRES   REMARKS
OAKLAND*       MOSUNNY   55  43  62 W8        29.96F
CUMBERLAND*    MOSUNNY   59  37  44 S6        29.98F

$$

VAZ025>031-221800-
SHENANDOAH VALLEY

CITY           SKY/WX    TMP DP  RH WIND       PRES   REMARKS
WINCHESTER*    CLOUDY    59  45  58 SW5       29.96F
FRONT ROYAL*   MOSUNNY   61  45  55 SW3       29.95F
LURAY*         MOSUNNY   61  50  67 SW9       29.97F
NEW MARKET*    CLOUDY    59  45  60 S8        29.97F
STAUNTON*      CLOUDY    54  48  80 S3        30.00F
WAYNESBORO*    CLOUDY    56  50  79 SW6       29.99F

$$

WVZ021-048>050-054>055-221800-
EASTERN WEST VIRGINIA PANHANDLE

CITY           SKY/WX    TMP DP  RH WIND       PRES   REMARKS
MARTINSBURG    CLOUDY    58  40  51 CALM      29.96F
PETERSBURG*    CLOUDY    60  45  57 CALM      29.96F

$$

VAZ036>039-050-221800-
CENTRAL FOOTHILLS

CITY           SKY/WX    TMP DP  RH WIND       PRES   REMARKS
CHARLOTTESVILL CLOUDY    55  51  86 VRB3      29.98F
CULPEPER*      MOSUNNY   58  50  73 S6        29.99F
ORANGE*        CLOUDY    55  48  76 CALM      29.99F
GORDONSVILLE*  CLOUDY    55  49  83 SW10      29.97F
WARRENTON*     CLOUDY    58  44  60 SW7       29.98F

$$

VAZ055>057-221800-
NORTH AND CENTRAL PIEDMONT

CITY           SKY/WX    TMP DP  RH WIND       PRES   REMARKS
FREDERICKSBRG* CLOUDY    55  50  82 CALM      29.98F
STAFFORD*      PTSUNNY   54  49  85 CALM      30.02F

$$

NCZ024-NYZ072-PAZ021-071-VAZ022-071-221800-
OTHER REGIONAL OBSERVATIONS

CITY           SKY/WX    TMP DP  RH WIND       PRES   REMARKS
NEW YORK CITY  CLOUDY    49  37  63 VRB3      30.01F
PHILADELPHIA   PTSUNNY   53  42  66 SW5       29.99F
PITTSBURGH     CLOUDY    60  46  59 SW6       29.92F
ROANOKE        LGT RAIN  51  48  89 CALM      30.03F
RICHMOND       LGT RAIN  56  51  84 SW10      30.01F FOG
RALEIGH        CLOUDY    68  52  56 SW10      30.00F

$$

ANZ530>537-221800-
MARINE OBSERVATIONS

STATION/POSITION TIME  TEMP    WIND        PRES
                       AIR SEA DIR/SP/G
                 (UTC) (F)     (DEG/KT/KT) (MB)
THOMAS PT LIGHT  1700   46 41  150/  8/  8   N/A
BALT KEY BRIDGE  1648   46     120/  7/  8 1015.6F
COVE POINT       1648   44     170/ 12/ 13 1016.3F
LEWISETTA        1648   56 44  230/  4/  5 1015.3F
SOLOMONS ISLAND  1648   47 44   80/  6/  6   N/A
PINEY POINT      1648          120/  5/  5   N/A

$$





USA.gov is the U.S. government's official web portal to all federal, state and local government web resources and services.